Regional Weather Roundup
Issued by NWS

Home | Current Version | Previous Version | Graphics & Text | Print | Product List | Glossary On
Versions: 1 2 3 4 5 6 7 8 9 10 11 12 13 14 15 16 17 18 19 20 21 22 23 24 25 26 27 28 29 30 31 32 33 34 35 36 37 38 39 40 41 42 43 44 45 46 47 48 49 50
737
ASUS44 KMEG 212100
RWRTN
TENNESSEE HOURLY STATE WEATHER ROUNDUP
NATIONAL WEATHER SERVICE MEMPHIS TN
400 PM CDT THU MAY 21 2015

TNZ002-004-019-021-049-052-054-088>092-212200-
WEST TENNESSEE

CITY           SKY/WX    TMP DP  RH WIND       PRES   REMARKS
MEMPHIS INTL   CLOUDY    57  44  62 N13       30.21S
NWS MEMPHIS      N/A     55 N/A N/A MISG        N/A
JACKSON        CLOUDY    55  45  68 NW10      30.20S
DYERSBURG      CLOUDY    55  36  47 N8        30.22S
PARIS          CLOUDY    55  43  62 N8        30.18F
LEXINGTON      CLOUDY    55  45  67 NW7       30.17S
$$

TNZ008-025-027-028-033-062-065-066-212200-
NORTH MIDDLE TENNESSEE

CITY           SKY/WX    TMP DP  RH WIND       PRES   REMARKS
NASHVILLE      CLOUDY    57  46  66 N8G17     30.15S
CLARKSVILLE    CLOUDY    57  45  64 N14       30.16S
SMYRNA         CLOUDY    57  48  72 NW8       30.16S
COOKEVILLE     CLOUDY    54  50  87 NW5       30.12R
CROSSVILLE     CLOUDY    52  47  83 W12G18    30.11R
$$

TNZ061-075-076-078-094-096-097-212200-
SOUTH MIDDLE TENNESSEE

CITY           SKY/WX    TMP DP  RH WIND       PRES   REMARKS
FAYETTEVILLE   CLOUDY   N/A N/A N/A MISG      30.13R
TULLAHOMA      CLOUDY    54  46  76 N13       30.13S
WINCHESTER     CLOUDY    55  48  76 N6        30.12S
SHELBYVILLE    CLOUDY    57  50  77 N14       30.15S
$$

TNZ017-018-042-046-047-212200-
NORTHEAST TENNESSEE

CITY           SKY/WX    TMP DP  RH WIND       PRES   REMARKS
TRI CITIES     PTSUNNY   68  51  54 W16G23    29.98S
$$

TNZ012-013-036-069-073-074-212200-
CENTRAL EAST TENNESSEE

CITY           SKY/WX    TMP DP  RH WIND       PRES   REMARKS
KNOXVILLE      MOSUNNY   66  50  56 W17       30.03R
OAK RIDGE      CLOUDY    62  50  64 W12G21    30.07R
GATLINBURG     CLOUDY    64  54  68 SW13      30.01S
$$

TNZ083-085-099-212200-
SOUTHEAST TENNESSEE

CITY           SKY/WX    TMP DP  RH WIND       PRES   REMARKS
CHATTANOOGA    PTSUNNY   63  51  65 NW12      30.08S
$$

SKY/WX REPORTED AS FAIR MEANS FEW OR NO CLOUDS BELOW
12 THOUSAND FEET.




USA.gov is the U.S. government's official web portal to all federal, state and local government web resources and services.